Pine Bluffs Muni, Pine Bluffs, WY

9:54 AM MDT on July 23, 2017 (GMT -0600)
Pine Bluffs Muni, Pine Bluffs

Weather History for K82V - May, 2014

Change the Weather History Date:

Friday, May 9, 2014

  Actual Average (KCYS) Record (KCYS)
Temperature  
Mean Temperature 46 °F -  
Max Temperature 59 °F 62 °F 84 °F (1962)
Min Temperature 33 °F 37 °F 20 °F (2002)
Degree Days  
Heating Degree Days 19    
Moisture  
Dew Point 36 °F    
Average Humidity 68    
Maximum Humidity 100    
Minimum Humidity 39    
Precipitation  
Precipitation 0.00 in - - ()
Sea Level Pressure  
Sea Level Pressure 29.86 in    
Wind  
Wind Speed 11 mph (SW)    
Max Wind Speed 20 mph    
Max Gust Speed 25 mph    
Visibility 10 miles    
Events Rain    
Averages and records for this station are not official NWS values.
T = Trace of Precipitation, MM = Missing Value Source: NWS Daily Summary

Daily Weather History Graph

Daily Weather History Graph

Search for Another Location

Airport or City:

Trip Planner

Search our weather history database for the weather conditions in past years. The results will help you decide how hot, cold, wet, or windy it might be!

Date:

Astronomy

May. 09, 2014 Rise Set
Actual Time 5:44 AM MDT 8:02 PM MDT
Civil Twilight 5:13 AM MDT 8:32 PM MDT
Nautical Twilight 4:35 AM MDT 9:10 PM MDT
Astronomical Twilight 3:54 AM MDT 9:53 PM MDT
Moon 2:59 PM MDT (5/9) 2:51 AM MDT (5/9)
Length of Visible Light 15h 19m
Length of Day
14h 17m
Waxing Gibbous, 74% of the Moon is Illuminated
May 9
Waxing Gibbous
May 14
Full
May 21
Last Quarter
May 28
New
Jun 5
First Quarter

Hourly Weather History & Observations

Time (MDT) Temp. Windchill Dew Point Humidity Pressure Visibility Wind Dir Wind Speed Gust Speed Precip Events Conditions
12:15 AM 37.4 °F 30.8 °F 37.4 °F 100% 29.94 in 10.0 mi SW 9.2 mph - N/A   Scattered Clouds
12:35 AM 37.4 °F 30.3 °F 37.4 °F 100% 29.94 in 10.0 mi SW 10.4 mph - N/A   Scattered Clouds
12:55 AM 37.4 °F 31.4 °F 35.6 °F 93% 29.94 in 10.0 mi SW 8.1 mph - N/A   Clear
1:15 AM 37.4 °F 30.3 °F 35.6 °F 93% 29.93 in 10.0 mi SW 10.4 mph - N/A   Scattered Clouds
1:35 AM 37.4 °F 30.3 °F 35.6 °F 93% 29.92 in 10.0 mi SW 10.4 mph - N/A   Clear
1:55 AM 37.4 °F 28.5 °F 35.6 °F 93% 29.91 in 10.0 mi SW 15.0 mph - N/A   Clear
2:15 AM 37.4 °F 28.5 °F 35.6 °F 93% 29.91 in 10.0 mi WSW 15.0 mph - N/A   Clear
2:35 AM 37.4 °F 28.9 °F 35.6 °F 93% 29.91 in 10.0 mi WSW 13.8 mph 20.7 mph N/A   Clear
2:55 AM 37.4 °F 29.3 °F 35.6 °F 93% 29.91 in 10.0 mi WSW 12.7 mph - N/A   Clear
3:15 AM 37.4 °F 29.8 °F 35.6 °F 93% 29.91 in 10.0 mi WSW 11.5 mph - N/A   Clear
3:35 AM 37.4 °F 29.8 °F 35.6 °F 93% 29.91 in 10.0 mi WSW 11.5 mph - N/A   Scattered Clouds
3:55 AM 37.4 °F 29.8 °F 35.6 °F 93% 29.90 in 10.0 mi WSW 11.5 mph - N/A   Clear
4:15 AM 35.6 °F 28.0 °F 35.6 °F 100% 29.90 in 10.0 mi WSW 10.4 mph - N/A   Clear
4:35 AM 35.6 °F 29.2 °F 33.8 °F 93% 29.89 in 7.0 mi WSW 8.1 mph - N/A   Clear
4:55 AM 35.6 °F 29.2 °F 33.8 °F 93% 29.89 in 7.0 mi West 8.1 mph - N/A   Clear
5:15 AM 33.8 °F 26.4 °F 33.8 °F 100% 29.89 in 7.0 mi West 9.2 mph - N/A   Clear
5:35 AM 33.8 °F 26.4 °F 32.0 °F 93% 29.88 in 7.0 mi WSW 9.2 mph - N/A   Clear
5:55 AM 33.8 °F 27.7 °F 32.0 °F 93% 29.88 in 5.0 mi WSW 6.9 mph - N/A   Clear
6:15 AM 33.8 °F 27.0 °F 32.0 °F 93% 29.88 in 7.0 mi West 8.1 mph - N/A   Clear
6:35 AM 35.6 °F 29.9 °F 32.0 °F 87% 29.88 in 10.0 mi WSW 6.9 mph - N/A   Clear
6:55 AM 37.4 °F 32.1 °F 33.8 °F 87% 29.89 in 10.0 mi SW 6.9 mph - N/A   Clear
7:15 AM 39.2 °F 33.6 °F 33.8 °F 81% 29.88 in 10.0 mi WSW 8.1 mph - N/A   Clear
7:35 AM 42.8 °F 37.5 °F 35.6 °F 76% 29.89 in 10.0 mi West 9.2 mph - N/A   Clear
7:55 AM 44.6 °F 39.2 °F 37.4 °F 76% 29.89 in 10.0 mi West 10.4 mph - N/A   Clear
8:15 AM 48.2 °F - 37.4 °F 66% 29.89 in 10.0 mi West 13.8 mph - N/A   Clear
8:35 AM 50.0 °F - 35.6 °F 58% 29.89 in 10.0 mi West 12.7 mph - N/A   Clear
8:55 AM 51.8 °F - 35.6 °F 54% 29.89 in 10.0 mi West 12.7 mph 18.4 mph N/A   Clear
9:15 AM 51.8 °F - 37.4 °F 58% 29.89 in 10.0 mi SW 12.7 mph - N/A   Clear
9:35 AM 53.6 °F - 37.4 °F 54% 29.88 in 10.0 mi SW 12.7 mph - N/A   Clear
9:55 AM 53.6 °F - 39.2 °F 58% 29.88 in 10.0 mi SSW 12.7 mph - N/A   Clear
10:15 AM 53.6 °F - 37.4 °F 54% 29.88 in 10.0 mi SW 9.2 mph - N/A   Clear
10:35 AM 55.4 °F - 37.4 °F 51% 29.87 in 10.0 mi SSW 13.8 mph 18.4 mph N/A   Clear
10:55 AM 55.4 °F - 35.6 °F 47% 29.87 in 10.0 mi SSW 12.7 mph 18.4 mph N/A   Clear
11:15 AM 55.4 °F - 37.4 °F 51% 29.86 in 10.0 mi SSW 15.0 mph 21.9 mph N/A   Clear
11:35 AM 57.2 °F - 37.4 °F 48% 29.86 in 10.0 mi SSW 15.0 mph 18.4 mph N/A   Clear
11:55 AM 57.2 °F - 35.6 °F 44% 29.86 in 10.0 mi SW 15.0 mph 19.6 mph N/A   Scattered Clouds
12:15 PM 57.2 °F - 35.6 °F 44% 29.84 in 10.0 mi SW 13.8 mph 19.6 mph N/A   Scattered Clouds
12:35 PM 57.2 °F - 33.8 °F 41% 29.84 in 10.0 mi SW 11.5 mph - N/A   Clear
12:55 PM 59.0 °F - 35.6 °F 42% 29.83 in 10.0 mi SW 15.0 mph 18.4 mph N/A   Clear
1:15 PM 59.0 °F - 33.8 °F 39% 29.83 in 10.0 mi SW 12.7 mph - N/A   Clear
1:35 PM 59.0 °F - 33.8 °F 39% 29.82 in 10.0 mi SW 11.5 mph - N/A   Scattered Clouds
1:55 PM 59.0 °F - 33.8 °F 39% 29.82 in 10.0 mi SW 12.7 mph 16.1 mph N/A   Scattered Clouds
2:15 PM 57.2 °F - 35.6 °F 44% 29.82 in 10.0 mi SSW 11.5 mph - N/A   Clear
2:35 PM 55.4 °F - 35.6 °F 47% 29.82 in 10.0 mi SSW 12.7 mph - N/A   Scattered Clouds
2:55 PM 55.4 °F - 37.4 °F 51% 29.82 in 10.0 mi SSW 10.4 mph 16.1 mph N/A   Scattered Clouds
3:15 PM 57.2 °F - 35.6 °F 44% 29.80 in 10.0 mi SSW 12.7 mph - N/A   Clear
3:35 PM 57.2 °F - 37.4 °F 48% 29.80 in 10.0 mi SSW 13.8 mph 19.6 mph N/A   Scattered Clouds
3:55 PM 55.4 °F - 33.8 °F 44% 29.80 in 10.0 mi SSW 15.0 mph 18.4 mph N/A   Scattered Clouds
4:15 PM 59.0 °F - 33.8 °F 39% 29.80 in 10.0 mi SSW 9.2 mph 16.1 mph N/A   Mostly Cloudy
4:35 PM 59.0 °F - 35.6 °F 42% 29.79 in 10.0 mi WSW 10.4 mph 16.1 mph N/A   Mostly Cloudy
4:55 PM 59.0 °F - 35.6 °F 42% 29.80 in 10.0 mi West 19.6 mph 25.3 mph N/A   Overcast
5:15 PM 59.0 °F - 33.8 °F 39% 29.80 in 10.0 mi WSW 17.3 mph 23.0 mph N/A   Mostly Cloudy
5:55 PM 57.2 °F - 35.6 °F 44% 29.80 in 10.0 mi WSW 12.7 mph - N/A   Scattered Clouds
6:15 PM 59.0 °F - 35.6 °F 42% 29.80 in 10.0 mi WSW 10.4 mph - N/A   Scattered Clouds
6:35 PM 57.2 °F - 33.8 °F 41% 29.80 in 10.0 mi SW 10.4 mph - N/A   Clear
6:55 PM 53.6 °F - 37.4 °F 54% 29.80 in 10.0 mi SW 9.2 mph - N/A   Clear
7:15 PM 51.8 °F - 41.0 °F 67% 29.81 in 10.0 mi West 9.2 mph - N/A   Scattered Clouds
7:35 PM 46.4 °F 41.5 °F 41.0 °F 81% 29.84 in 10.0 mi WSW 10.4 mph - N/A Rain Light Rain
7:55 PM 46.4 °F 40.7 °F 41.0 °F 81% 29.84 in 10.0 mi SSW 12.7 mph - N/A   Overcast
8:15 PM 46.4 °F 40.7 °F 41.0 °F 81% 29.84 in 10.0 mi SSW 12.7 mph 19.6 mph N/A   Scattered Clouds
8:35 PM 46.4 °F 42.9 °F 41.0 °F 81% 29.84 in 10.0 mi South 6.9 mph - N/A   Scattered Clouds
8:55 PM 44.6 °F 41.4 °F 41.0 °F 87% 29.84 in 10.0 mi SSW 5.8 mph - N/A   Clear
9:15 PM 44.6 °F 40.7 °F 41.0 °F 87% 29.84 in 10.0 mi South 6.9 mph - N/A   Clear
9:35 PM 44.6 °F 40.2 °F 41.0 °F 87% 29.85 in 10.0 mi SSW 8.1 mph - N/A   Scattered Clouds
9:55 PM 44.6 °F 38.4 °F 41.0 °F 87% 29.86 in 10.0 mi WSW 12.7 mph - N/A   Scattered Clouds
10:15 PM 44.6 °F 39.2 °F 39.2 °F 81% 29.86 in 10.0 mi WSW 10.4 mph - N/A   Scattered Clouds
10:35 PM 46.4 °F 40.4 °F 39.2 °F 76% 29.86 in 10.0 mi West 13.8 mph - N/A   Scattered Clouds
10:55 PM 46.4 °F 39.2 °F 37.4 °F 71% 29.87 in 10.0 mi West 18.4 mph 24.2 mph N/A   Scattered Clouds
11:15 PM 46.4 °F 41.5 °F 37.4 °F 71% 29.87 in 10.0 mi WSW 10.4 mph 21.9 mph N/A   Mostly Cloudy
11:35 PM 50.0 °F - 33.8 °F 54% 29.86 in 10.0 mi WSW 9.2 mph 19.6 mph N/A   Overcast
11:55 PM 48.2 °F - 32.0 °F 54% 29.87 in 10.0 mi WSW 12.7 mph 18.4 mph N/A   Scattered Clouds